EHI
22 21 18 16 14 14 12 11 12 12 8 6 6 6 4 3 3 4 5 5 4 4 4 4 5 6 6 4 3 3 3 5 4 2 1 2 6 7 4 4 3 3 3
22 21 18 15 14 15 15 13 13 13 10 8 7 6 5 4 5 5 5 5 4 4 4 4 6 8 8 7 6 5 4 5 4 2 1 3 7 7 5 4 3 2 2
21 21 19 17 16 16 16 14 13 13 13 11 9 8 7 7 8 8 8 6 5 5 6 7 8 9 9 9 8 5 4 4 3 2 2 5 7 7 6 3 1 0 1
23 24 23 21 18 16 15 13 12 13 14 13 11 11 9 9 9 10 10 9 8 9 10 10 11 11 11 10 8 6 4 4 3 2 3 5 6 6 4 2 0 0 0
27 28 27 23 18 15 13 12 11 12 13 13 13 13 11 9 8 9 9 9 11 12 13 14 14 12 10 8 6 5 5 4 4 3 3 5 5 5 3 2 1 2 1
31 30 26 21 17 15 14 12 12 13 14 15 16 17 15 12 9 7 6 8 12 14 15 16 15 12 8 5 3 2 2 3 4 4 4 6 6 5 4 3 3 4 4
32 30 26 21 17 15 16 17 16 17 18 20 22 22 20 15 9 4 4 7 12 15 16 16 16 13 10 7 3 2 1 2 3 4 4 6 7 7 7 6 5 6 6
30 29 27 23 19 17 20 23 23 23 23 25 25 24 22 16 8 3 3 8 14 16 15 15 15 15 12 10 7 5 4 3 2 3 3 4 5 7 8 8 6 6 6
28 28 26 24 22 22 25 28 28 26 25 25 25 24 23 18 10 2 3 10 16 17 15 14 13 13 11 8 7 7 6 5 3 2 1 1 2 3 6 7 6 5 4
27 25 24 23 24 26 29 29 28 26 25 23 23 23 22 20 13 4 3 10 15 16 16 14 10 8 6 4 5 6 6 6 5 4 3 3 3 3 4 5 6 6 4
25 24 21 20 21 24 26 25 23 22 22 21 21 22 20 18 13 5 3 6 11 15 16 15 10 4 2 1 2 4 4 4 6 7 7 7 7 7 7 7 8 9 7
25 24 20 16 16 19 21 20 18 17 17 16 17 18 17 16 12 7 3 2 7 13 15 13 9 3 0 0 1 2 2 3 4 6 8 9 9 10 10 10 11 11 11
25 25 21 16 15 17 19 17 15 14 14 13 14 16 16 15 13 9 4 1 3 8 10 8 4 1 0 0 0 1 1 2 4 4 5 6 8 9 11 10 10 10 10
24 24 21 17 16 18 16 13 12 12 13 13 14 16 17 16 14 11 7 3 3 5 6 5 3 1 1 1 1 1 1 3 4 4 3 4 6 8 9 9 8 6 5
23 20 17 15 14 14 12 9 8 9 9 10 11 13 14 14 12 9 7 5 4 4 5 5 4 3 3 3 2 2 3 3 4 3 3 3 4 5 6 7 6 4 2
19 17 14 11 9 8 8 8 6 5 4 4 4 5 7 7 6 4 3 3 2 2 4 6 6 5 5 5 4 4 3 3 3 3 3 3 3 4 4 5 4 3 3
14 14 12 9 7 5 7 8 7 4 2 1 0 1 1 1 1 0 0 0 0 1 3 6 7 6 6 6 6 5 4 3 3 3 3 3 3 3 3 3 3 2 2
12 12 11 9 8 6 7 9 8 6 4 3 2 0 0 0 0 0 0 1 1 2 4 6 6 6 6 7 7 6 5 4 4 3 3 3 3 3 3 3 1 1 1
12 11 9 9 8 6 6 6 6 6 6 6 4 2 0 0 0 0 1 2 2 3 4 4 4 5 5 6 7 8 7 5 4 4 3 3 3 3 3 2 1 0 0
14 9 7 7 7 5 4 3 3 5 6 6 6 3 1 0 0 0 1 2 2 1 1 1 1 2 3 5 7 8 7 5 4 3 3 3 3 3 3 2 1 0 0
12 8 5 5 5 4 3 2 3 4 5 6 6 4 1 0 0 0 0 1 1 0 0 0 0 1 2 5 6 6 6 5 4 3 3 3 3 3 3 2 1 1 1
9 6 4 4 4 3 4 4 4 5 6 7 6 4 2 1 0 0 0 0 0 0 0 0 0 2 4 6 6 5 4 4 4 4 3 3 3 3 3 3 2 2 2
7 5 4 4 5 6 7 7 6 6 7 7 6 4 3 3 1 1 0 0 0 0 0 0 0 2 4 6 6 5 4 4 5 5 4 3 3 3 3 3 3 3 2
7 5 5 6 7 8 8 7 7 7 7 5 4 4 5 5 4 2 1 0 0 1 0 0 0 1 3 4 4 4 4 4 4 4 3 3 3 3 3 3 3 1 1
6 5 6 6 6 6 5 5 6 7 6 5 4 5 6 6 5 4 1 0 0 0 0 0 0 1 2 2 1 1 2 2 1 1 2 2 2 3 3 3 2 1 0
4 4 5 5 5 3 2 3 5 6 6 6 6 6 6 6 6 5 2 1 0 0 0 0 0 0 1 1 0 0 0 0 0 0 1 1 1 2 3 3 1 0 0
Wind_Speed
7 6 6 6 6 5 4 4 4 3 4 3 3 3 2 2 2 1 1 1 2 1 2 1 2 3 3 2 2 3 3 3 3 2 1 1 1 2 1 2 2 2 3
7 7 7 6 5 5 5 5 4 4 4 4 3 3 3 2 2 2 2 2 2 2 2 2 2 2 2 3 2 3 3 3 4 3 2 2 2 2 1 2 1 1 1
8 7 7 6 6 5 5 5 5 4 4 4 3 3 2 2 2 2 2 2 3 3 2 2 2 2 2 2 3 3 3 3 3 3 3 1 2 2 2 2 1 1 1
7 7 6 5 5 5 4 4 4 4 4 4 3 3 3 3 3 3 3 3 3 3 3 3 3 3 2 2 3 3 3 3 3 3 3 3 3 3 3 3 2 2 2
7 7 6 5 5 4 4 4 4 4 4 4 3 3 3 3 2 2 3 3 3 3 3 3 2 1 2 2 3 2 2 3 3 4 3 3 3 3 3 3 2 2 2
7 7 6 6 5 5 5 4 4 4 3 4 4 4 3 2 2 1 3 3 3 3 3 3 3 3 2 2 2 3 3 4 4 4 4 4 3 4 2 3 3 3 2
7 6 6 6 5 5 5 5 5 4 4 4 4 4 3 2 2 1 3 4 4 3 3 4 4 2 4 3 4 5 4 4 4 5 5 4 4 4 4 4 4 4 2
7 6 6 6 6 6 5 5 5 4 4 4 4 4 3 3 3 3 4 6 4 4 4 4 4 4 3 3 4 4 5 5 5 5 5 5 4 3 4 5 4 4 4
7 6 6 6 6 6 5 5 5 4 4 5 4 4 4 4 5 5 5 5 4 5 5 5 5 5 2 3 5 5 5 4 4 3 3 3 2 3 4 5 5 5 5
5 5 5 5 5 5 4 4 4 4 4 5 4 5 5 5 5 5 5 5 4 4 4 5 5 4 3 4 6 6 6 5 4 4 4 5 6 6 7 7 6 6 5
5 4 4 4 5 4 4 4 4 4 4 4 4 5 5 4 5 6 6 5 5 5 4 4 3 5 6 7 7 6 5 5 5 5 5 5 5 5 6 7 6 6 6
4 4 4 3 3 3 3 4 4 4 5 5 5 5 4 4 5 6 8 8 7 6 5 4 2 5 7 8 7 4 4 5 5 5 5 5 4 5 5 5 6 6 5
4 4 4 4 3 3 4 4 4 5 5 4 4 4 3 3 4 7 8 9 9 7 5 3 3 5 6 7 7 7 7 6 5 6 6 5 5 4 4 4 5 5 6
4 3 3 4 4 4 3 4 4 4 4 4 4 4 3 3 3 3 4 5 6 7 5 4 6 7 7 6 5 6 6 5 5 6 5 5 4 4 5 5 5 5 5
4 3 4 4 4 3 4 3 4 3 2 4 4 4 4 4 1 1 3 3 3 3 3 4 4 4 4 4 4 4 5 5 5 6 5 5 5 5 4 4 4 5 6
4 4 3 3 3 3 4 4 2 3 2 3 4 5 4 2 1 2 4 4 4 4 5 5 5 5 5 4 4 4 4 4 5 5 5 5 5 5 5 5 5 6 6
3 3 3 3 3 4 4 4 4 4 6 7 7 8 7 5 5 5 5 5 5 6 6 6 5 5 5 5 4 5 5 4 4 5 5 5 5 5 5 5 5 5 6
3 3 4 4 4 4 4 5 5 5 4 4 6 9 9 8 8 7 6 4 5 6 6 6 5 5 5 5 5 5 5 5 5 5 5 5 5 5 6 6 6 6 6
4 3 3 3 4 4 4 5 5 6 6 4 4 4 8 8 8 8 7 6 6 6 6 5 5 5 5 5 4 5 5 5 5 5 5 6 5 6 6 6 6 6 7
4 4 5 5 5 5 5 5 5 5 5 5 4 4 3 4 4 5 6 6 6 6 6 6 5 5 5 5 5 5 6 5 5 6 5 5 5 6 6 7 6 6 6
3 3 6 6 5 5 4 5 5 5 5 5 4 2 2 4 5 5 5 5 6 6 6 5 5 5 5 5 5 6 7 5 5 5 5 5 6 6 6 6 7 7 7
3 3 4 4 4 4 4 4 4 5 5 6 4 3 4 5 5 5 5 5 5 5 5 5 5 5 5 5 5 5 6 5 5 5 5 6 6 6 6 6 6 6 6
4 3 3 4 4 3 4 5 4 4 4 4 4 3 3 4 4 4 4 4 4 4 4 4 5 5 4 5 5 5 6 5 5 5 5 6 6 6 6 6 7 7 7
3 4 4 3 3 3 3 3 3 4 4 4 4 3 3 3 4 4 4 4 4 4 4 4 5 5 6 5 5 5 4 4 5 5 7 7 7 7 6 6 7 8 8
3 3 3 3 3 3 3 3 3 3 4 3 3 3 3 3 4 4 4 3 4 4 5 5 4 5 6 7 6 4 1 1 3 5 6 7 8 7 7 7 6 7 7
2 2 2 3 2 3 3 3 3 3 3 3 3 3 4 4 4 4 4 4 4 4 5 4 5 6 7 6 5 2 1 2 3 5 6 7 8 7 7 6 8 7 7
Wind_Direction
181 183 187 187 185 184 188 190 190 190 182 188 194 196 196 195 194 207 252 226 251 271 270 260 273 298 296 289 279 273 267 260 260 271 239 163 205 247 171 211 193 196 136
176 179 185 185 186 190 186 189 191 189 191 187 195 200 207 200 202 213 243 242 250 260 267 277 278 274 281 288 288 279 270 264 252 256 237 204 201 209 186 223 216 196 139
175 179 180 186 185 190 192 189 189 190 192 192 193 206 218 218 216 222 236 247 251 253 255 254 265 274 275 291 288 277 262 245 240 237 230 204 206 197 196 205 191 231 211
175 178 177 182 182 182 183 184 187 191 192 196 199 205 213 222 224 233 241 248 254 254 253 256 261 265 266 272 266 270 273 261 238 234 228 211 205 193 211 212 196 190 237
174 177 175 177 177 179 181 184 186 191 195 193 199 199 205 210 214 241 249 243 249 254 252 254 260 288 324 301 297 293 274 262 246 233 229 226 213 203 215 219 217 203 200
174 174 172 176 179 184 186 185 185 188 194 196 200 204 209 196 92 10 282 254 248 248 252 249 233 210 202 223 291 318 310 276 275 265 247 239 231 227 225 231 224 226 219
167 172 171 177 184 190 192 186 188 192 194 198 204 206 201 154 131 181 267 264 251 253 254 252 251 218 215 218 208 220 239 257 269 273 272 266 243 224 227 233 235 251 258
166 170 175 185 189 191 193 192 192 197 201 203 205 203 201 172 170 206 243 244 251 249 248 249 252 252 240 246 239 234 236 226 230 243 260 268 271 253 231 240 233 231 233
170 175 179 187 189 192 194 194 192 195 200 204 203 206 208 194 190 208 242 244 238 244 245 244 246 244 218 246 244 241 245 242 224 231 265 272 287 264 251 240 228 227 228
168 176 181 189 190 192 192 194 195 199 208 213 206 214 217 218 193 202 232 251 246 246 237 231 226 239 210 218 240 242 244 248 252 229 220 223 228 223 222 233 239 239 238
161 160 172 183 189 190 191 197 202 208 210 222 220 222 224 227 197 193 214 249 256 253 250 244 221 184 209 221 241 245 248 258 249 243 234 228 224 222 218 223 238 250 251
157 161 165 174 193 181 192 204 211 215 212 214 221 232 224 216 214 200 205 230 265 261 259 259 241 191 216 226 235 240 241 247 245 245 242 238 236 231 226 227 233 248 266
165 170 170 179 198 196 200 207 212 217 231 227 226 234 237 226 196 193 205 221 238 254 264 274 256 218 222 225 222 224 226 235 241 243 244 242 242 241 236 227 226 233 243
176 180 182 192 199 197 218 221 227 227 234 238 241 248 254 242 242 216 217 219 224 238 254 239 218 219 231 242 220 215 232 240 245 250 253 250 245 233 233 233 230 222 229
184 191 204 209 205 204 214 234 243 245 265 263 266 263 267 266 293 316 265 249 255 262 266 253 245 232 228 233 233 232 235 231 236 246 251 252 249 244 243 238 237 237 238
196 204 216 218 214 224 220 220 216 243 209 230 260 274 274 272 222 231 253 258 243 235 245 245 246 246 245 243 245 243 240 244 247 244 243 246 247 247 245 241 237 239 242
219 225 237 237 225 230 233 238 237 221 219 228 232 236 244 255 245 238 239 242 235 214 232 244 248 250 253 253 251 253 252 248 249 246 244 246 248 250 248 245 241 243 246
225 224 236 239 240 241 243 249 251 252 244 239 224 220 223 228 232 233 227 228 235 219 240 249 252 251 250 253 255 258 260 255 244 244 245 246 246 248 249 248 244 243 244
234 236 239 246 246 247 250 253 256 258 260 259 255 216 206 212 217 221 207 229 246 245 245 248 254 257 257 256 256 258 258 255 253 253 251 252 251 251 252 251 249 240 244
229 226 238 250 250 248 251 255 258 257 256 257 255 255 220 221 241 228 221 236 246 249 247 245 247 253 256 256 250 248 251 249 247 248 254 256 256 256 257 258 258 254 246
250 224 220 243 252 257 260 262 263 263 263 262 261 260 243 251 253 252 249 247 250 253 251 249 247 245 246 248 251 252 254 254 252 254 254 255 257 257 257 256 253 251 252
263 256 251 254 254 255 262 264 264 265 267 267 269 235 202 238 253 253 252 255 256 254 254 253 252 248 250 253 254 254 256 257 259 262 262 260 259 259 258 253 252 253 253
262 261 256 257 258 247 247 256 264 271 275 278 278 270 250 259 265 266 265 265 264 261 260 260 263 263 259 254 251 252 257 258 257 261 263 260 259 258 256 254 253 254 254
261 265 265 263 264 267 267 271 275 280 281 279 280 278 273 269 268 268 270 274 273 270 267 264 263 268 272 273 266 256 259 276 275 263 260 265 264 261 258 256 255 256 257
273 269 274 276 276 279 282 285 285 282 282 284 282 274 269 270 268 266 265 266 267 266 269 268 266 265 267 268 270 277 319 292 272 281 267 261 263 264 263 260 258 257 255
299 302 297 297 302 305 302 297 291 292 293 292 288 283 280 277 277 280 279 276 274 268 266 266 270 272 272 267 269 276 230 234 243 260 267 261 260 259 260 260 259 256 252